Home > Weather > Palm Springs > Past weeks

Flag for USA Past Weather in Palm Springs, California, USA — Yesterday and Last 2 Weeks

Now
69 °F

Clear.


Feels Like: 69 °F
Forecast: 62 / 87 °F
Wind: 20 mph from Northwest

Location: Palm Springs Regional Airport

Current Time: May 26, 2016 at 1:58:07 AM

Latest Report: May 26, 2016 at 12:53 AM


Visibility: 10 mi

Pressure: 29.93 "Hg

Humidity: 33%

Dew Point: 39 °F

Location of Palm SpringsLocation

Past Weather in Palm Springs — Graph

°F

Palm Springs Temperature Yesterday

Maximum temperature yesterday: 81 °F (at 2:53 PM)
Minimum temperature yesterday: 64 °F (at 5:53 AM)
Average temperature yesterday: 72 °F

High & Low Weather Summary for the Past Weeks

 TemperatureHumidityPressure
High100 °F (May 12, 12:53 PM)75% (May 18, 4:53 AM)29.97 "Hg (May 18, 4:53 AM)
Low58 °F (May 22, 5:53 AM)9% (May 12, 12:53 PM)29.63 "Hg (May 19, 6:53 PM)
Average78 °F32%29.82 "Hg
* Reported May 11 12:53 AM — May 26 12:53 AM, Palm Springs, Weather by CustomWeather, © 2016

Note: Actual official high and low records may vary slightly from our data, if they occured in-between our weather recording intervals... More about our weather records

Advertising

Palm Springs Weather History for the Previous 24 Hours

Scroll right to see more
 ConditionsComfort  
Time TempWeatherWind HumidityBarometerVisibility
12:53 AM
Thu, May 26
69 °FClear.20 mph33%29.93 "Hg10 mi
11:53 PM
Wed, May 25
69 °FClear.17 mph33%29.94 "Hg10 mi
10:53 PM68 °FClear.16 mph35%29.95 "Hg10 mi
9:53 PM70 °FClear.16 mph32%29.94 "Hg10 mi
8:53 PM70 °FPassing clouds.23 mph32%29.93 "Hg10 mi
7:53 PM72 °FScattered clouds.23 mph30%29.92 "Hg10 mi
6:53 PM75 °FScattered clouds.17 mph25%29.90 "Hg10 mi
5:53 PM77 °FScattered clouds.21 mph24%29.89 "Hg10 mi
4:53 PM80 °FScattered clouds.28 mph22%29.89 "Hg10 mi
3:53 PM81 °FScattered clouds.28 mph22%29.90 "Hg10 mi
2:53 PM81 °FScattered clouds.26 mph21%29.91 "Hg10 mi
1:53 PM79 °FPartly sunny.24 mph20%29.93 "Hg10 mi
11:53 AM77 °FScattered clouds.24 mph24%29.95 "Hg10 mi
9:53 AM73 °FSunny.21 mph27%29.96 "Hg10 mi
8:53 AM70 °FSunny.21 mph35%29.96 "Hg10 mi
7:53 AM68 °FSunny.16 mph38%29.96 "Hg10 mi
6:53 AM64 °FSunny.6 mph33%29.94 "Hg10 mi
5:53 AM64 °FClear.8 mph35%29.93 "Hg10 mi
2:53 AM65 °FClear.5 mph45%29.90 "Hg10 mi
1:53 AM67 °FClear.9 mph37%29.89 "Hg10 mi
Weather by CustomWeather, © 2016

See weather overviewHow to use our weather pages